QPF
0.00 0.00 0.00 0.00 0.00 0.00 0.00 0.00 0.00 0.00 0.00 0.00 0.00 0.00 0.00 0.00 0.00 0.01 0.02 0.01 0.01 0.01 0.04 0.10 0.10 0.07 0.07 0.07 0.06 0.04 0.03 0.02 0.02 0.02 0.02 0.02 0.03 0.03 0.03 0.03 0.04 0.04 0.04 0.05 0.05 0.05 0.05 0.05 0.06
0.00 0.00 0.00 0.00 0.00 0.00 0.00 0.00 0.00 0.00 0.00 0.00 0.00 0.00 0.00 0.00 0.00 0.00 0.01 0.00 0.00 0.01 0.04 0.11 0.12 0.10 0.08 0.07 0.05 0.04 0.03 0.02 0.02 0.01 0.01 0.02 0.03 0.04 0.04 0.04 0.04 0.05 0.06 0.05 0.04 0.05 0.04 0.05 0.09
0.00 0.00 0.00 0.00 0.00 0.00 0.00 0.00 0.00 0.00 0.00 0.00 0.00 0.00 0.00 0.00 0.00 0.00 0.00 0.00 0.00 0.00 0.02 0.08 0.12 0.10 0.09 0.07 0.05 0.04 0.03 0.02 0.01 0.01 0.01 0.02 0.03 0.04 0.03 0.04 0.05 0.07 0.09 0.07 0.06 0.04 0.04 0.06 0.13
0.00 0.00 0.00 0.00 0.00 0.00 0.00 0.00 0.00 0.00 0.00 0.00 0.00 0.00 0.00 0.00 0.00 0.00 0.00 0.00 0.00 0.00 0.01 0.03 0.09 0.12 0.11 0.08 0.06 0.05 0.03 0.02 0.01 0.01 0.01 0.02 0.02 0.02 0.03 0.05 0.07 0.08 0.09 0.08 0.07 0.06 0.06 0.08 0.12
0.00 0.00 0.00 0.00 0.00 0.00 0.00 0.00 0.00 0.00 0.00 0.00 0.00 0.00 0.00 0.00 0.00 0.00 0.00 0.00 0.00 0.00 0.01 0.02 0.05 0.08 0.08 0.05 0.03 0.02 0.02 0.02 0.01 0.01 0.01 0.02 0.02 0.02 0.03 0.05 0.06 0.08 0.10 0.09 0.10 0.11 0.10 0.11 0.13
0.00 0.00 0.00 0.00 0.00 0.00 0.00 0.00 0.00 0.00 0.00 0.00 0.00 0.00 0.00 0.00 0.00 0.00 0.00 0.00 0.00 0.00 0.01 0.01 0.03 0.03 0.03 0.03 0.03 0.02 0.02 0.02 0.02 0.01 0.02 0.02 0.02 0.02 0.03 0.05 0.05 0.05 0.13 0.13 0.11 0.12 0.12 0.12 0.12
0.00 0.00 0.00 0.00 0.00 0.00 0.00 0.00 0.00 0.00 0.00 0.00 0.00 0.00 0.00 0.00 0.00 0.00 0.00 0.00 0.00 0.00 0.00 0.01 0.01 0.02 0.01 0.02 0.03 0.03 0.02 0.02 0.02 0.02 0.01 0.02 0.02 0.02 0.03 0.04 0.03 0.03 0.11 0.18 0.14 0.14 0.13 0.13 0.15
0.00 0.00 0.00 0.00 0.00 0.00 0.00 0.00 0.00 0.00 0.01 0.00 0.00 0.00 0.00 0.00 0.00 0.00 0.00 0.00 0.00 0.00 0.00 0.01 0.01 0.01 0.01 0.01 0.02 0.03 0.02 0.02 0.01 0.01 0.01 0.02 0.01 0.01 0.01 0.02 0.03 0.03 0.05 0.12 0.15 0.14 0.14 0.18 0.22
0.00 0.00 0.00 0.00 0.00 0.00 0.00 0.00 0.00 0.00 0.00 0.00 0.00 0.00 0.00 0.00 0.00 0.00 0.00 0.00 0.00 0.00 0.01 0.01 0.00 0.01 0.01 0.01 0.01 0.02 0.01 0.01 0.01 0.01 0.01 0.01 0.02 0.01 0.01 0.01 0.02 0.04 0.05 0.07 0.12 0.14 0.16 0.26 0.31
0.01 0.00 0.00 0.00 0.00 0.00 0.00 0.00 0.00 0.00 0.00 0.00 0.00 0.00 0.00 0.00 0.00 0.00 0.01 0.01 0.01 0.01 0.01 0.00 0.00 0.00 0.00 0.01 0.01 0.01 0.01 0.01 0.02 0.01 0.01 0.01 0.02 0.02 0.01 0.01 0.01 0.02 0.04 0.06 0.10 0.12 0.16 0.24 0.26
0.00 0.00 0.00 0.00 0.00 0.00 0.00 0.00 0.00 0.00 0.01 0.00 0.00 0.01 0.00 0.00 0.00 0.00 0.00 0.01 0.01 0.01 0.00 0.00 0.00 0.00 0.01 0.01 0.01 0.01 0.01 0.01 0.01 0.01 0.01 0.01 0.02 0.02 0.02 0.02 0.02 0.03 0.04 0.06 0.07 0.11 0.12 0.15 0.17
0.00 0.00 0.00 0.00 0.00 0.00 0.00 0.00 0.00 0.00 0.01 0.01 0.01 0.01 0.00 0.00 0.00 0.00 0.00 0.00 0.00 0.00 0.00 0.00 0.00 0.00 0.01 0.01 0.01 0.01 0.01 0.01 0.01 0.01 0.01 0.01 0.02 0.02 0.02 0.03 0.04 0.05 0.05 0.06 0.06 0.07 0.06 0.07 0.09
0.00 0.00 0.00 0.00 0.00 0.00 0.00 0.00 0.00 0.00 0.01 0.02 0.01 0.01 0.01 0.00 0.00 0.00 0.00 0.00 0.00 0.00 0.00 0.00 0.00 0.01 0.01 0.01 0.01 0.01 0.01 0.01 0.01 0.00 0.01 0.02 0.02 0.03 0.03 0.04 0.04 0.04 0.05 0.06 0.07 0.05 0.04 0.04 0.06
0.00 0.00 0.00 0.00 0.00 0.00 0.00 0.00 0.00 0.02 0.01 0.02 0.02 0.01 0.01 0.01 0.01 0.01 0.00 0.01 0.00 0.00 0.00 0.00 0.00 0.01 0.01 0.01 0.01 0.01 0.01 0.01 0.00 0.00 0.01 0.02 0.02 0.03 0.04 0.03 0.03 0.04 0.04 0.06 0.07 0.06 0.07 0.06 0.06
0.00 0.00 0.00 0.00 0.00 0.00 0.00 0.00 0.00 0.02 0.02 0.02 0.02 0.01 0.01 0.01 0.01 0.00 0.01 0.01 0.01 0.00 0.00 0.00 0.00 0.00 0.01 0.01 0.01 0.01 0.01 0.01 0.01 0.01 0.01 0.02 0.03 0.04 0.05 0.04 0.02 0.04 0.05 0.07 0.08 0.09 0.09 0.10 0.09
0.00 0.00 0.00 0.00 0.00 0.00 0.01 0.00 0.00 0.00 0.01 0.01 0.01 0.01 0.00 0.00 0.00 0.00 0.00 0.01 0.01 0.01 0.01 0.01 0.00 0.00 0.01 0.01 0.02 0.02 0.02 0.02 0.01 0.02 0.02 0.03 0.04 0.03 0.05 0.07 0.02 0.03 0.04 0.06 0.08 0.12 0.12 0.12 0.12
0.00 0.00 0.00 0.00 0.00 0.00 0.00 0.00 0.01 0.00 0.00 0.00 0.00 0.00 0.00 0.00 0.00 0.00 0.00 0.01 0.01 0.01 0.01 0.00 0.00 0.00 0.01 0.02 0.03 0.03 0.03 0.03 0.02 0.02 0.03 0.04 0.05 0.05 0.04 0.04 0.04 0.03 0.05 0.07 0.06 0.13 0.12 0.13 0.11
0.00 0.00 0.00 0.00 0.00 0.00 0.00 0.00 0.01 0.01 0.00 0.00 0.00 0.00 0.00 0.00 0.00 0.00 0.00 0.01 0.01 0.01 0.01 0.00 0.00 0.01 0.02 0.04 0.05 0.06 0.05 0.04 0.04 0.03 0.04 0.05 0.08 0.08 0.07 0.09 0.07 0.04 0.06 0.09 0.07 0.11 0.11 0.12 0.10
0.00 0.00 0.00 0.00 0.00 0.00 0.00 0.00 0.00 0.00 0.00 0.00 0.00 0.00 0.00 0.00 0.00 0.00 0.00 0.01 0.01 0.01 0.01 0.01 0.02 0.02 0.03 0.04 0.04 0.05 0.05 0.04 0.04 0.04 0.05 0.06 0.10 0.11 0.09 0.12 0.12 0.06 0.06 0.10 0.10 0.08 0.10 0.11 0.10
0.00 0.00 0.00 0.00 0.00 0.00 0.00 0.01 0.00 0.00 0.01 0.00 0.00 0.00 0.00 0.01 0.01 0.00 0.00 0.01 0.01 0.01 0.01 0.01 0.01 0.01 0.02 0.03 0.04 0.06 0.06 0.05 0.04 0.05 0.05 0.05 0.08 0.11 0.11 0.14 0.14 0.08 0.07 0.09 0.13 0.11 0.09 0.08 0.09
0.00 0.00 0.00 0.00 0.00 0.00 0.00 0.01 0.01 0.00 0.00 0.01 0.00 0.00 0.00 0.01 0.01 0.01 0.01 0.01 0.01 0.01 0.02 0.01 0.01 0.02 0.02 0.02 0.04 0.06 0.08 0.08 0.06 0.05 0.05 0.05 0.07 0.09 0.11 0.13 0.13 0.09 0.07 0.10 0.12 0.15 0.12 0.07 0.07
0.00 0.00 0.00 0.00 0.00 0.00 0.00 0.01 0.00 0.00 0.00 0.00 0.00 0.00 0.01 0.00 0.01 0.01 0.00 0.01 0.01 0.01 0.02 0.01 0.02 0.03 0.03 0.04 0.04 0.06 0.09 0.11 0.10 0.07 0.06 0.05 0.04 0.05 0.07 0.10 0.10 0.08 0.08 0.10 0.11 0.13 0.16 0.12 0.09
0.00 0.00 0.00 0.00 0.00 0.00 0.00 0.01 0.00 0.00 0.00 0.00 0.00 0.00 0.00 0.00 0.01 0.01 0.01 0.01 0.01 0.02 0.02 0.02 0.03 0.04 0.04 0.04 0.05 0.07 0.10 0.11 0.11 0.09 0.06 0.04 0.04 0.04 0.04 0.05 0.06 0.07 0.09 0.09 0.11 0.14 0.17 0.16 0.13
0.00 0.00 0.00 0.00 0.01 0.01 0.00 0.01 0.00 0.00 0.00 0.01 0.01 0.01 0.00 0.00 0.00 0.00 0.01 0.01 0.01 0.02 0.02 0.02 0.04 0.05 0.06 0.05 0.05 0.06 0.08 0.09 0.10 0.09 0.06 0.04 0.03 0.03 0.03 0.04 0.04 0.05 0.07 0.08 0.10 0.12 0.14 0.15 0.14
0.00 0.00 0.01 0.01 0.02 0.01 0.00 0.00 0.00 0.00 0.00 0.00 0.00 0.00 0.00 0.00 0.01 0.00 0.01 0.01 0.01 0.02 0.04 0.06 0.08 0.09 0.08 0.06 0.06 0.05 0.05 0.06 0.06 0.06 0.06 0.04 0.03 0.02 0.03 0.03 0.03 0.03 0.05 0.05 0.07 0.10 0.10 0.12 0.13
0.00 0.00 0.00 0.01 0.01 0.01 0.00 0.00 0.00 0.00 0.00 0.01 0.00 0.00 0.00 0.00 0.00 0.00 0.01 0.01 0.01 0.01 0.04 0.09 0.10 0.08 0.08 0.08 0.07 0.05 0.04 0.04 0.03 0.04 0.05 0.04 0.03 0.02 0.03 0.03 0.02 0.03 0.03 0.03 0.04 0.06 0.07 0.09 0.10
0.00 0.00 0.00 0.00 0.00 0.01 0.00 0.00 0.00 0.00 0.00 0.00 0.00 0.00 0.00 0.00 0.00 0.00 0.00 0.00 0.00 0.01 0.03 0.07 0.08 0.05 0.04 0.04 0.04 0.03 0.03 0.03 0.03 0.02 0.03 0.02 0.03 0.03 0.03 0.03 0.02 0.03 0.03 0.04 0.06 0.06 0.06 0.07 0.08
0.00 0.00 0.00 0.00 0.01 0.01 0.01 0.00 0.00 0.00 0.00 0.00 0.00 0.00 0.00 0.00 0.00 0.00 0.00 0.00 0.00 0.01 0.02 0.03 0.04 0.04 0.03 0.03 0.03 0.03 0.03 0.03 0.04 0.03 0.02 0.02 0.02 0.03 0.03 0.03 0.03 0.04 0.04 0.04 0.05 0.04 0.05 0.06 0.06
0.00 0.00 0.00 0.01 0.01 0.02 0.01 0.01 0.00 0.00 0.00 0.00 0.00 0.00 0.00 0.00 0.00 0.00 0.00 0.00 0.00 0.01 0.02 0.01 0.02 0.02 0.02 0.02 0.02 0.03 0.03 0.02 0.03 0.02 0.01 0.02 0.03 0.03 0.03 0.03 0.03 0.03 0.03 0.03 0.03 0.03 0.03 0.03 0.04
0.00 0.00 0.00 0.01 0.01 0.02 0.01 0.01 0.00 0.01 0.00 0.00 0.00 0.00 0.00 0.00 0.00 0.00 0.00 0.00 0.01 0.01 0.02 0.01 0.01 0.01 0.02 0.03 0.02 0.03 0.03 0.02 0.02 0.02 0.02 0.02 0.03 0.03 0.02 0.03 0.04 0.03 0.03 0.03 0.03 0.03 0.02 0.02 0.02
MSLP
1008.25 1008.57 1008.88 1009.05 1009.00 1008.71 1008.22 1007.62 1007.07 1006.68 1006.56 1006.74 1007.15 1007.70 1008.23 1008.64 1008.82 1008.75 1008.48 1008.12 1007.79 1007.61 1007.63 1007.86 1008.26 1008.72 1009.15 1009.44 1009.57 1009.53 1009.35 1009.12 1008.89 1008.70 1008.59 1008.53 1008.50 1008.46 1008.39 1008.27 1008.14 1008.01 1007.91 1007.86 1007.87 1007.93 1008.04 1008.16 1008.31
1008.14 1008.48 1008.78 1008.91 1008.82 1008.48 1007.94 1007.30 1006.72 1006.31 1006.17 1006.32 1006.71 1007.24 1007.78 1008.21 1008.43 1008.43 1008.26 1008.00 1007.76 1007.65 1007.72 1007.98 1008.38 1008.83 1009.23 1009.51 1009.64 1009.61 1009.46 1009.25 1009.03 1008.86 1008.73 1008.65 1008.58 1008.50 1008.39 1008.23 1008.05 1007.87 1007.72 1007.61 1007.55 1007.54 1007.57 1007.64 1007.76
1008.05 1008.39 1008.66 1008.74 1008.60 1008.21 1007.64 1006.99 1006.40 1006.00 1005.86 1005.99 1006.37 1006.87 1007.39 1007.81 1008.06 1008.11 1008.00 1007.83 1007.69 1007.65 1007.78 1008.06 1008.46 1008.90 1009.28 1009.56 1009.68 1009.66 1009.53 1009.34 1009.14 1008.97 1008.83 1008.73 1008.64 1008.53 1008.39 1008.20 1007.99 1007.78 1007.58 1007.41 1007.27 1007.18 1007.14 1007.15 1007.23
1007.99 1008.31 1008.52 1008.55 1008.35 1007.93 1007.35 1006.73 1006.17 1005.80 1005.69 1005.83 1006.18 1006.66 1007.15 1007.54 1007.79 1007.86 1007.81 1007.71 1007.64 1007.67 1007.84 1008.15 1008.54 1008.96 1009.32 1009.57 1009.68 1009.66 1009.53 1009.35 1009.16 1008.99 1008.86 1008.74 1008.64 1008.52 1008.37 1008.18 1007.96 1007.73 1007.50 1007.29 1007.10 1006.94 1006.83 1006.79 1006.85
1007.96 1008.23 1008.38 1008.34 1008.10 1007.67 1007.12 1006.55 1006.06 1005.77 1005.70 1005.87 1006.22 1006.66 1007.11 1007.47 1007.70 1007.78 1007.76 1007.71 1007.69 1007.77 1007.98 1008.29 1008.66 1009.04 1009.36 1009.56 1009.64 1009.59 1009.45 1009.26 1009.07 1008.90 1008.77 1008.66 1008.56 1008.45 1008.31 1008.15 1007.95 1007.74 1007.51 1007.28 1007.06 1006.86 1006.72 1006.65 1006.71
1007.95 1008.15 1008.23 1008.14 1007.87 1007.45 1006.96 1006.48 1006.10 1005.90 1005.92 1006.13 1006.48 1006.91 1007.31 1007.63 1007.83 1007.91 1007.91 1007.89 1007.91 1008.02 1008.23 1008.52 1008.86 1009.17 1009.41 1009.55 1009.56 1009.46 1009.29 1009.09 1008.89 1008.72 1008.58 1008.48 1008.39 1008.31 1008.21 1008.09 1007.94 1007.76 1007.57 1007.36 1007.16 1006.97 1006.83 1006.77 1006.84
1007.95 1008.08 1008.09 1007.95 1007.67 1007.30 1006.89 1006.52 1006.27 1006.20 1006.30 1006.57 1006.94 1007.35 1007.73 1008.01 1008.19 1008.26 1008.28 1008.28 1008.32 1008.44 1008.63 1008.87 1009.14 1009.36 1009.51 1009.54 1009.48 1009.32 1009.11 1008.88 1008.66 1008.48 1008.35 1008.25 1008.18 1008.12 1008.06 1007.99 1007.90 1007.79 1007.66 1007.52 1007.38 1007.24 1007.15 1007.14 1007.25
1007.97 1008.03 1007.96 1007.79 1007.52 1007.21 1006.90 1006.67 1006.56 1006.61 1006.81 1007.14 1007.53 1007.93 1008.28 1008.54 1008.70 1008.78 1008.81 1008.83 1008.89 1008.99 1009.15 1009.33 1009.50 1009.61 1009.64 1009.58 1009.43 1009.21 1008.95 1008.70 1008.47 1008.28 1008.14 1008.04 1007.98 1007.93 1007.90 1007.87 1007.84 1007.80 1007.76 1007.71 1007.66 1007.62 1007.62 1007.70 1007.87
1008.01 1007.99 1007.88 1007.68 1007.44 1007.20 1007.01 1006.91 1006.93 1007.10 1007.38 1007.75 1008.16 1008.55 1008.89 1009.14 1009.30 1009.39 1009.44 1009.49 1009.55 1009.64 1009.74 1009.84 1009.91 1009.91 1009.83 1009.67 1009.44 1009.16 1008.87 1008.60 1008.36 1008.17 1008.03 1007.92 1007.85 1007.80 1007.77 1007.76 1007.77 1007.80 1007.85 1007.91 1007.98 1008.07 1008.18 1008.36 1008.63
1008.06 1007.99 1007.84 1007.65 1007.45 1007.29 1007.21 1007.23 1007.37 1007.62 1007.97 1008.36 1008.77 1009.14 1009.46 1009.71 1009.88 1010.00 1010.08 1010.16 1010.23 1010.30 1010.35 1010.37 1010.33 1010.22 1010.04 1009.79 1009.51 1009.20 1008.90 1008.63 1008.40 1008.22 1008.07 1007.94 1007.84 1007.76 1007.71 1007.70 1007.73 1007.81 1007.94 1008.10 1008.29 1008.51 1008.77 1009.06 1009.41
1008.12 1008.02 1007.86 1007.70 1007.56 1007.49 1007.51 1007.64 1007.86 1008.17 1008.54 1008.93 1009.31 1009.65 1009.95 1010.19 1010.38 1010.53 1010.66 1010.76 1010.85 1010.90 1010.91 1010.85 1010.72 1010.52 1010.26 1009.95 1009.63 1009.32 1009.04 1008.80 1008.59 1008.42 1008.27 1008.12 1007.99 1007.86 1007.77 1007.73 1007.75 1007.86 1008.04 1008.29 1008.59 1008.94 1009.32 1009.73 1010.16
1008.20 1008.09 1007.96 1007.85 1007.80 1007.83 1007.95 1008.16 1008.44 1008.76 1009.11 1009.46 1009.78 1010.07 1010.33 1010.56 1010.77 1010.95 1011.12 1011.26 1011.36 1011.40 1011.37 1011.25 1011.05 1010.77 1010.45 1010.11 1009.79 1009.50 1009.26 1009.07 1008.91 1008.76 1008.62 1008.45 1008.28 1008.10 1007.95 1007.86 1007.86 1007.96 1008.17 1008.48 1008.88 1009.33 1009.82 1010.31 1010.82
1008.28 1008.20 1008.13 1008.12 1008.18 1008.31 1008.53 1008.81 1009.11 1009.42 1009.72 1009.98 1010.22 1010.44 1010.64 1010.85 1011.05 1011.27 1011.47 1011.63 1011.75 1011.78 1011.71 1011.54 1011.29 1010.96 1010.61 1010.26 1009.96 1009.71 1009.53 1009.40 1009.29 1009.19 1009.05 1008.88 1008.67 1008.45 1008.24 1008.10 1008.06 1008.14 1008.36 1008.70 1009.15 1009.67 1010.23 1010.80 1011.35
1008.36 1008.35 1008.39 1008.49 1008.68 1008.95 1009.27 1009.60 1009.91 1010.18 1010.39 1010.55 1010.68 1010.80 1010.93 1011.09 1011.28 1011.50 1011.72 1011.91 1012.03 1012.05 1011.96 1011.76 1011.46 1011.10 1010.74 1010.40 1010.13 1009.93 1009.81 1009.74 1009.69 1009.62 1009.51 1009.33 1009.10 1008.84 1008.59 1008.41 1008.33 1008.38 1008.59 1008.94 1009.41 1009.97 1010.58 1011.19 1011.78
1008.45 1008.54 1008.70 1008.96 1009.30 1009.71 1010.12 1010.51 1010.82 1011.03 1011.15 1011.19 1011.20 1011.21 1011.25 1011.35 1011.52 1011.73 1011.95 1012.14 1012.25 1012.27 1012.15 1011.92 1011.60 1011.24 1010.87 1010.55 1010.31 1010.16 1010.09 1010.07 1010.06 1010.03 1009.93 1009.75 1009.51 1009.24 1008.96 1008.75 1008.64 1008.67 1008.85 1009.19 1009.66 1010.23 1010.86 1011.49 1012.09
1008.55 1008.74 1009.05 1009.48 1009.99 1010.54 1011.06 1011.49 1011.79 1011.95 1011.97 1011.90 1011.79 1011.69 1011.64 1011.67 1011.79 1011.98 1012.19 1012.37 1012.47 1012.47 1012.34 1012.09 1011.76 1011.39 1011.04 1010.74 1010.53 1010.41 1010.37 1010.38 1010.39 1010.37 1010.28 1010.11 1009.87 1009.59 1009.31 1009.08 1008.96 1008.97 1009.13 1009.45 1009.90 1010.46 1011.07 1011.71 1012.33
1008.64 1008.95 1009.42 1010.01 1010.69 1011.37 1011.98 1012.46 1012.76 1012.86 1012.81 1012.64 1012.42 1012.22 1012.09 1012.06 1012.14 1012.29 1012.47 1012.63 1012.72 1012.70 1012.56 1012.31 1011.98 1011.62 1011.28 1011.00 1010.81 1010.70 1010.67 1010.68 1010.68 1010.65 1010.56 1010.39 1010.15 1009.87 1009.60 1009.39 1009.26 1009.26 1009.41 1009.70 1010.12 1010.64 1011.23 1011.86 1012.49
1008.71 1009.14 1009.75 1010.50 1011.31 1012.11 1012.80 1013.32 1013.61 1013.68 1013.56 1013.32 1013.03 1012.76 1012.57 1012.49 1012.53 1012.65 1012.81 1012.94 1013.01 1012.98 1012.83 1012.59 1012.27 1011.94 1011.62 1011.36 1011.18 1011.07 1011.02 1011.00 1010.98 1010.92 1010.80 1010.62 1010.38 1010.12 1009.87 1009.67 1009.55 1009.55 1009.68 1009.93 1010.31 1010.79 1011.34 1011.95 1012.58
1008.77 1009.29 1010.02 1010.88 1011.81 1012.69 1013.43 1013.97 1014.26 1014.30 1014.14 1013.86 1013.53 1013.23 1013.01 1012.91 1012.93 1013.03 1013.17 1013.29 1013.34 1013.30 1013.16 1012.93 1012.64 1012.33 1012.04 1011.81 1011.63 1011.51 1011.44 1011.39 1011.32 1011.21 1011.05 1010.85 1010.61 1010.36 1010.13 1009.95 1009.85 1009.84 1009.95 1010.16 1010.48 1010.91 1011.41 1011.98 1012.60
1008.78 1009.38 1010.18 1011.13 1012.11 1013.03 1013.79 1014.33 1014.61 1014.64 1014.47 1014.18 1013.85 1013.56 1013.36 1013.27 1013.30 1013.40 1013.53 1013.63 1013.68 1013.64 1013.51 1013.30 1013.04 1012.77 1012.52 1012.31 1012.15 1012.03 1011.93 1011.83 1011.71 1011.55 1011.35 1011.12 1010.88 1010.64 1010.42 1010.27 1010.17 1010.16 1010.24 1010.40 1010.66 1011.01 1011.44 1011.96 1012.55
1008.74 1009.39 1010.23 1011.20 1012.20 1013.11 1013.86 1014.38 1014.64 1014.66 1014.50 1014.24 1013.95 1013.71 1013.57 1013.53 1013.59 1013.71 1013.85 1013.96 1014.00 1013.96 1013.84 1013.66 1013.44 1013.22 1013.01 1012.83 1012.69 1012.56 1012.44 1012.31 1012.15 1011.95 1011.71 1011.46 1011.21 1010.98 1010.78 1010.64 1010.55 1010.52 1010.56 1010.67 1010.85 1011.11 1011.46 1011.90 1012.44
1008.64 1009.31 1010.17 1011.12 1012.09 1012.96 1013.66 1014.13 1014.37 1014.39 1014.27 1014.06 1013.85 1013.70 1013.64 1013.67 1013.79 1013.96 1014.12 1014.23 1014.28 1014.25 1014.14 1013.98 1013.79 1013.60 1013.43 1013.29 1013.18 1013.06 1012.94 1012.79 1012.60 1012.38 1012.12 1011.86 1011.61 1011.39 1011.21 1011.07 1010.99 1010.94 1010.94 1010.97 1011.07 1011.22 1011.47 1011.82 1012.27
1008.49 1009.17 1010.00 1010.92 1011.82 1012.62 1013.25 1013.68 1013.89 1013.93 1013.85 1013.72 1013.61 1013.56 1013.61 1013.74 1013.93 1014.15 1014.34 1014.47 1014.51 1014.48 1014.38 1014.22 1014.06 1013.90 1013.77 1013.66 1013.57 1013.47 1013.36 1013.21 1013.02 1012.79 1012.54 1012.29 1012.05 1011.85 1011.68 1011.56 1011.47 1011.40 1011.35 1011.32 1011.32 1011.37 1011.50 1011.73 1012.08
1008.30 1008.98 1009.78 1010.63 1011.46 1012.18 1012.74 1013.11 1013.31 1013.37 1013.34 1013.30 1013.30 1013.37 1013.53 1013.76 1014.03 1014.30 1014.52 1014.66 1014.71 1014.67 1014.56 1014.41 1014.25 1014.11 1013.99 1013.91 1013.84 1013.76 1013.67 1013.54 1013.36 1013.15 1012.92 1012.69 1012.48 1012.30 1012.16 1012.06 1011.97 1011.88 1011.79 1011.70 1011.61 1011.55 1011.55 1011.66 1011.89
1008.10 1008.77 1009.53 1010.32 1011.07 1011.71 1012.21 1012.54 1012.73 1012.82 1012.86 1012.91 1013.02 1013.20 1013.47 1013.79 1014.13 1014.45 1014.70 1014.85 1014.89 1014.84 1014.72 1014.56 1014.39 1014.25 1014.14 1014.06 1014.00 1013.94 1013.86 1013.75 1013.60 1013.42 1013.22 1013.03 1012.86 1012.71 1012.60 1012.52 1012.43 1012.34 1012.22 1012.08 1011.91 1011.76 1011.66 1011.64 1011.74
1007.91 1008.56 1009.28 1010.01 1010.69 1011.27 1011.72 1012.03 1012.23 1012.36 1012.47 1012.60 1012.81 1013.09 1013.44 1013.84 1014.24 1014.60 1014.87 1015.03 1015.07 1015.01 1014.87 1014.70 1014.52 1014.36 1014.24 1014.15 1014.09 1014.04 1013.97 1013.87 1013.75 1013.60 1013.43 1013.28 1013.14 1013.04 1012.96 1012.90 1012.83 1012.74 1012.61 1012.43 1012.22 1012.00 1011.80 1011.67 1011.66
1007.74 1008.37 1009.05 1009.73 1010.35 1010.88 1011.30 1011.62 1011.84 1012.02 1012.19 1012.41 1012.69 1013.04 1013.46 1013.91 1014.35 1014.73 1015.02 1015.19 1015.24 1015.18 1015.04 1014.86 1014.67 1014.50 1014.36 1014.26 1014.18 1014.12 1014.05 1013.95 1013.84 1013.71 1013.57 1013.45 1013.34 1013.27 1013.22 1013.18 1013.14 1013.06 1012.93 1012.75 1012.51 1012.25 1011.98 1011.77 1011.66
1007.61 1008.21 1008.84 1009.47 1010.04 1010.54 1010.95 1011.28 1011.54 1011.77 1012.01 1012.28 1012.63 1013.03 1013.49 1013.97 1014.43 1014.82 1015.12 1015.31 1015.38 1015.34 1015.22 1015.05 1014.87 1014.70 1014.55 1014.43 1014.33 1014.24 1014.15 1014.04 1013.92 1013.80 1013.67 1013.55 1013.47 1013.41 1013.38 1013.36 1013.34 1013.28 1013.17 1012.99 1012.76 1012.48 1012.19 1011.93 1011.73
1007.53 1008.07 1008.65 1009.22 1009.75 1010.22 1010.63 1010.97 1011.27 1011.56 1011.85 1012.18 1012.57 1013.00 1013.47 1013.96 1014.42 1014.82 1015.14 1015.35 1015.46 1015.46 1015.39 1015.27 1015.11 1014.96 1014.82 1014.68 1014.57 1014.45 1014.33 1014.20 1014.06 1013.91 1013.77 1013.65 1013.56 1013.50 1013.47 1013.46 1013.44 1013.40 1013.31 1013.16 1012.95 1012.69 1012.40 1012.11 1011.87
1007.49 1007.97 1008.46 1008.96 1009.43 1009.87 1010.27 1010.64 1010.98 1011.31 1011.66 1012.03 1012.44 1012.89 1013.36 1013.84 1014.29 1014.70 1015.03 1015.28 1015.44 1015.51 1015.52 1015.46 1015.37 1015.26 1015.14 1015.02 1014.89 1014.75 1014.60 1014.43 1014.26 1014.08 1013.91 1013.77 1013.65 1013.57 1013.52 1013.50 1013.48 1013.45 1013.38 1013.26 1013.08 1012.84 1012.57 1012.29 1012.03
Thickness
5824 5829 5832 5829 5823 5818 5807 5812 5818 5815 5816 5821 5821 5816 5809 5803 5795 5784 5801 5808 5805 5802 5795 5786 5781 5778 5775 5773 5771 5770 5769 5768 5766 5765 5765 5764 5764 5763 5763 5764 5764 5764 5765 5765 5765 5765 5765 5764 5763
5831 5832 5830 5829 5820 5804 5803 5815 5813 5815 5819 5822 5819 5815 5809 5802 5804 5802 5804 5804 5803 5799 5793 5787 5780 5777 5774 5771 5770 5768 5767 5766 5765 5764 5763 5762 5762 5762 5762 5762 5762 5762 5763 5763 5763 5763 5763 5762 5761
5832 5833 5829 5827 5816 5807 5805 5816 5817 5820 5823 5820 5814 5814 5807 5799 5802 5803 5804 5804 5801 5796 5792 5784 5778 5775 5772 5770 5768 5767 5765 5764 5763 5762 5761 5760 5760 5760 5760 5760 5760 5760 5761 5761 5761 5761 5761 5760 5759
5832 5830 5830 5821 5808 5815 5817 5821 5823 5818 5819 5821 5816 5806 5805 5805 5807 5807 5805 5803 5799 5795 5791 5783 5777 5773 5771 5768 5767 5765 5764 5762 5761 5760 5759 5759 5758 5758 5757 5758 5758 5758 5758 5759 5759 5759 5759 5758 5758
5833 5829 5819 5811 5811 5818 5825 5827 5826 5819 5817 5818 5815 5803 5798 5805 5810 5807 5804 5801 5797 5794 5790 5783 5774 5772 5769 5767 5765 5764 5762 5761 5760 5759 5758 5757 5756 5756 5756 5756 5756 5756 5756 5756 5756 5757 5756 5756 5756
5828 5827 5811 5803 5808 5818 5826 5829 5826 5821 5818 5817 5813 5804 5797 5805 5805 5804 5803 5800 5798 5794 5789 5781 5773 5770 5768 5765 5764 5762 5760 5759 5758 5757 5756 5756 5755 5755 5755 5754 5754 5754 5754 5754 5754 5754 5753 5753 5753
5822 5820 5811 5810 5807 5812 5821 5830 5825 5821 5816 5817 5819 5805 5799 5802 5804 5804 5801 5799 5796 5792 5788 5782 5776 5771 5767 5764 5762 5760 5759 5758 5757 5756 5755 5754 5754 5754 5754 5753 5752 5752 5752 5751 5751 5751 5751 5751 5751
5828 5821 5811 5811 5808 5811 5824 5828 5828 5824 5817 5825 5822 5806 5798 5801 5805 5803 5799 5796 5793 5790 5786 5781 5777 5774 5770 5767 5761 5759 5758 5757 5756 5755 5754 5754 5754 5754 5753 5753 5752 5750 5750 5749 5749 5748 5748 5748 5748
5826 5812 5805 5810 5810 5814 5824 5822 5825 5830 5822 5818 5819 5816 5813 5808 5804 5798 5793 5790 5787 5784 5783 5780 5777 5774 5772 5769 5763 5760 5758 5756 5755 5754 5753 5753 5756 5757 5755 5753 5750 5749 5748 5747 5747 5747 5747 5746 5747
5818 5807 5809 5818 5821 5820 5822 5820 5822 5821 5813 5810 5809 5810 5809 5804 5799 5793 5789 5785 5782 5780 5780 5779 5776 5773 5771 5768 5764 5763 5762 5758 5757 5756 5754 5754 5754 5753 5754 5750 5749 5748 5747 5747 5746 5746 5746 5747 5749
5815 5808 5813 5818 5822 5822 5819 5819 5823 5817 5807 5811 5808 5805 5803 5800 5796 5793 5790 5787 5783 5780 5778 5777 5774 5771 5769 5767 5765 5763 5761 5758 5757 5755 5753 5752 5752 5752 5752 5752 5751 5749 5748 5748 5747 5748 5748 5748 5748
5809 5810 5814 5817 5820 5819 5818 5819 5816 5813 5812 5819 5818 5812 5803 5798 5794 5792 5789 5786 5783 5779 5776 5775 5773 5769 5767 5765 5764 5761 5760 5758 5757 5753 5751 5751 5750 5750 5749 5749 5749 5749 5748 5747 5747 5746 5745 5745 5746
5804 5807 5812 5816 5817 5818 5817 5814 5813 5811 5818 5820 5816 5808 5801 5797 5794 5792 5790 5786 5782 5777 5775 5773 5770 5766 5763 5761 5760 5759 5757 5757 5754 5751 5750 5748 5748 5748 5747 5745 5745 5747 5747 5746 5745 5745 5744 5744 5744
5806 5806 5808 5812 5813 5814 5809 5810 5808 5809 5816 5812 5807 5802 5800 5796 5793 5790 5786 5782 5780 5776 5773 5772 5768 5764 5761 5759 5756 5755 5755 5752 5752 5750 5748 5746 5746 5745 5744 5744 5743 5744 5744 5744 5743 5743 5742 5743 5742
5806 5799 5801 5806 5809 5811 5809 5797 5800 5809 5811 5806 5802 5799 5797 5795 5791 5787 5784 5781 5778 5775 5772 5769 5766 5763 5759 5757 5755 5754 5752 5751 5750 5747 5745 5743 5743 5742 5742 5742 5742 5742 5742 5740 5741 5741 5741 5741 5740
5799 5794 5788 5799 5805 5807 5799 5786 5798 5808 5805 5800 5799 5796 5792 5790 5789 5787 5784 5780 5777 5774 5769 5766 5766 5761 5757 5754 5751 5751 5749 5747 5746 5745 5743 5741 5740 5739 5739 5741 5742 5740 5740 5740 5740 5740 5740 5739 5738
5789 5785 5785 5791 5801 5802 5797 5788 5796 5804 5800 5796 5795 5793 5790 5786 5786 5785 5784 5780 5776 5772 5768 5764 5763 5759 5756 5752 5749 5747 5745 5743 5743 5742 5741 5739 5738 5738 5738 5739 5738 5738 5739 5739 5739 5739 5738 5736 5735
5780 5784 5782 5783 5793 5793 5788 5786 5792 5797 5796 5793 5792 5790 5787 5783 5782 5783 5781 5779 5774 5770 5767 5763 5760 5756 5753 5750 5746 5744 5743 5741 5740 5740 5737 5736 5736 5736 5736 5737 5735 5736 5736 5736 5736 5735 5735 5735 5733
5785 5781 5778 5782 5790 5786 5781 5780 5786 5790 5790 5789 5788 5787 5784 5782 5783 5781 5779 5776 5771 5767 5763 5760 5756 5753 5750 5747 5744 5742 5740 5739 5738 5737 5735 5733 5733 5733 5733 5735 5733 5734 5734 5733 5733 5733 5733 5732 5733
5778 5774 5775 5778 5783 5780 5776 5776 5784 5787 5786 5787 5785 5783 5782 5780 5778 5775 5773 5771 5768 5764 5761 5758 5754 5751 5747 5744 5742 5740 5739 5737 5736 5735 5732 5731 5731 5731 5732 5730 5731 5731 5731 5730 5730 5729 5730 5731 5731
5772 5773 5773 5771 5775 5778 5772 5768 5775 5781 5785 5785 5785 5784 5782 5778 5774 5772 5769 5767 5765 5761 5759 5757 5752 5748 5744 5742 5740 5738 5735 5732 5731 5730 5730 5728 5727 5727 5727 5727 5727 5728 5729 5728 5727 5727 5726 5726 5728
5766 5778 5775 5769 5765 5766 5769 5758 5770 5775 5775 5777 5779 5780 5778 5776 5773 5770 5767 5764 5762 5759 5757 5753 5749 5744 5741 5740 5738 5734 5730 5728 5727 5727 5726 5725 5724 5724 5724 5724 5723 5724 5726 5725 5725 5726 5725 5724 5725
5773 5779 5774 5770 5767 5763 5766 5760 5769 5774 5769 5773 5776 5777 5775 5774 5771 5767 5764 5761 5759 5757 5754 5750 5745 5741 5738 5736 5734 5731 5729 5727 5726 5724 5722 5721 5721 5721 5721 5721 5720 5720 5722 5722 5722 5722 5722 5723 5723
5775 5770 5767 5767 5766 5747 5760 5756 5760 5772 5770 5773 5775 5774 5772 5770 5768 5765 5763 5759 5756 5754 5751 5747 5742 5738 5735 5732 5729 5726 5724 5722 5720 5719 5719 5719 5719 5719 5718 5718 5717 5717 5718 5718 5718 5718 5719 5719 5720
5767 5757 5745 5742 5745 5749 5763 5755 5759 5772 5775 5774 5772 5771 5769 5767 5765 5761 5758 5755 5751 5748 5745 5742 5737 5733 5731 5728 5725 5722 5720 5718 5716 5716 5716 5716 5717 5716 5714 5715 5713 5713 5713 5714 5715 5714 5715 5715 5715
5762 5760 5743 5734 5740 5752 5754 5751 5764 5772 5773 5773 5771 5769 5766 5764 5762 5758 5755 5751 5748 5744 5740 5737 5733 5728 5726 5723 5720 5718 5716 5716 5715 5713 5713 5713 5713 5713 5711 5711 5710 5710 5710 5711 5711 5712 5711 5710 5710
5757 5759 5768 5755 5749 5744 5751 5754 5760 5767 5765 5764 5764 5763 5761 5760 5758 5756 5753 5749 5745 5741 5737 5733 5728 5724 5721 5719 5716 5713 5711 5710 5709 5708 5708 5710 5708 5709 5708 5707 5706 5706 5706 5706 5707 5707 5706 5706 5707
5764 5762 5754 5747 5729 5728 5740 5743 5750 5752 5754 5757 5757 5757 5757 5756 5754 5752 5749 5745 5741 5738 5734 5730 5725 5721 5717 5714 5712 5710 5706 5705 5704 5704 5702 5702 5703 5703 5703 5703 5702 5702 5702 5702 5702 5703 5702 5702 5702
5749 5748 5747 5747 5744 5728 5725 5739 5759 5753 5752 5752 5753 5754 5752 5750 5748 5746 5743 5740 5736 5733 5730 5725 5720 5716 5712 5710 5706 5703 5701 5700 5699 5698 5698 5697 5697 5698 5698 5698 5698 5699 5698 5698 5698 5698 5698 5698 5698
5751 5748 5743 5729 5727 5732 5731 5735 5753 5752 5750 5749 5748 5748 5747 5745 5743 5740 5737 5734 5730 5726 5724 5720 5716 5712 5708 5705 5701 5698 5696 5694 5692 5691 5691 5691 5691 5692 5693 5694 5694 5695 5694 5694 5694 5694 5695 5694 5695